Terug naar catalogus

FENGYUN 1C DEB

ActiefSSO
NORAD 37921·DEBRIS·🇨🇳 China

Gelanceerd May 10, 1999 vanaf Taiyuan Satellite Launch Center

Loading…

Volgende Passages (komende 24 uur)

TLE

VerouderendSource: Space-Track

Epoch: Sep 9, 2026, 22:27 UTC

1 37921U 99025ENW 26252.93610384 -.00000075  00000-0 -23450-4 0  9990
2 37921  98.9894 292.6455 0084361  75.6143 285.4364 13.95293209669299

Volg FENGYUN 1C DEB in realtime met AllMySat

Download on the App Store